Weather History for Learmonth, WE

Change the Weather History Date:

Wednesday, February 13, 2013

  Actual Average Record
Temperature  
Mean Temperature 92 °F -  
Max Temperature 106 °F 95 °F 109 °F (2012)
Min Temperature 77 °F 73 °F 69 °F (2003)
Cooling Degree Days 26    
Growing Degree Days 42 (Base 50)    
Moisture  
Dew Point 63 °F    
Average Humidity 42    
Maximum Humidity 78    
Minimum Humidity 9    
Precipitation  
Precipitation 0.00 in 0.04 in - ()
Sea Level Pressure  
Sea Level Pressure 29.75 in    
Wind  
Wind Speed 12 mph ()    
Max Wind Speed 20 mph    
Max Gust Speed 34 mph    
Visibility 6.8 miles    
Events      
Averages and records for this station are not official NWS values.
T = Trace of Precipitation, MM = Missing Value Source: Averaged Metar Reports

Daily Weather History Graph

Daily Weather History Graph

Search for Another Location

Airport:

Trip Planner

Search our weather history database for the weather conditions in past years. The results will help you decide how hot, cold, wet, or windy it might be!

Date:

Astronomy

Feb. 13, 2013 Rise Set
Actual Time 6:11 AM AWST 7:03 PM AWST
Civil Twilight 5:48 AM AWST 7:26 PM AWST
Nautical Twilight 5:21 AM AWST 7:54 PM AWST
Astronomical Twilight 4:53 AM AWST 8:21 PM AWST
Moon 8:48 AM AWST (2/13) 8:54 PM AWST (2/13)
Length of Visible Light 13h 38m
Length of Day
12h 51m
Waxing Crescent, 10% of the Moon is Illuminated
Feb 13
Waxing Crescent
Feb 18
First Quarter
Feb 26
Full
Mar 5
Last Quarter
Mar 12
New

Hourly Weather History & Observations

Time (AWST) Temp. Heat Index Dew Point Humidity Pressure Visibility Wind Dir Wind Speed Gust Speed Precip Events Conditions
12:00 AM 83 °F - 70 °F 57% 29.78 in - SW 17.3 mph - -  
12:00 AM 84.2 °F 88.4 °F 69.8 °F 62% 29.77 in 6.2 mi SW 17.3 mph - N/A   Unknown
12:30 AM 84.2 °F 85.6 °F 64.4 °F 51% 29.77 in 6.2 mi SSW 16.1 mph - N/A   Unknown
1:00 AM 82.4 °F 85.4 °F 68.0 °F 62% 29.77 in 6.2 mi SSW 17.3 mph - N/A   Unknown
1:30 AM 82.4 °F 86.3 °F 69.8 °F 66% 29.77 in 6.2 mi SSW 15.0 mph - N/A   Unknown
2:00 AM 81 °F - 71 °F 64% 29.79 in - SSW 12.7 mph - -  
2:00 AM 80.6 °F 84.6 °F 71.6 °F 74% 29.77 in 6.2 mi SSW 12.7 mph - N/A   Unknown
2:30 AM 80.6 °F 84.6 °F 71.6 °F 74% 29.77 in 6.2 mi SSW 10.4 mph - N/A   Unknown
3:00 AM 80 °F - 72 °F 70% 29.78 in - SSW 13.8 mph - -  
3:00 AM 80.6 °F 84.6 °F 71.6 °F 74% 29.77 in 6.2 mi SSW 13.8 mph - N/A   Unknown
3:30 AM 80.6 °F 84.6 °F 71.6 °F 74% 29.77 in 6.2 mi SSW 12.7 mph - N/A   Unknown
4:00 AM 78.8 °F - 71.6 °F 78% 29.74 in 6.2 mi SSW 12.7 mph - N/A   Unknown
4:30 AM 78.8 °F - 71.6 °F 78% 29.77 in 6.2 mi South 10.4 mph - N/A   Unknown
5:00 AM 78 °F - 71 °F 72% 29.77 in - SSW 8.1 mph - -  
5:00 AM 78.8 °F - 71.6 °F 78% 29.77 in 6.2 mi SSW 8.1 mph - N/A   Unknown
5:30 AM 78.8 °F - 69.8 °F 74% 29.77 in 6.2 mi SSW 11.5 mph - N/A   Unknown
6:00 AM 78 °F - 70 °F 70% 29.78 in 11 mi SSW 10.4 mph - -   Scattered Clouds
6:00 AM 78.8 °F - 69.8 °F 74% 29.77 in - SSW 10.4 mph - N/A   Clear
6:30 AM 78.8 °F - 69.8 °F 74% 29.77 in - SSW 9.2 mph - N/A   Clear
7:00 AM 80.6 °F 83.9 °F 69.8 °F 70% 29.77 in - SSW 10.4 mph - N/A   Clear
7:30 AM 82.4 °F 85.4 °F 68.0 °F 62% 29.80 in - South 11.5 mph - N/A   Clear
8:00 AM 86 °F - 66 °F 42% 29.80 in - South 11.5 mph - -  
8:00 AM 86.0 °F 88.2 °F 66.2 °F 51% 29.80 in - South 11.5 mph - N/A   Clear
8:30 AM 89.6 °F 90.1 °F 62.6 °F 40% 29.80 in - SSE 10.4 mph - N/A   Clear
9:00 AM 91 °F - 62 °F 28% 29.81 in 11 mi SSE 10.4 mph - -   Partly Cloudy
9:00 AM 91.4 °F 92.1 °F 62.6 °F 38% 29.80 in - SSE 10.4 mph - N/A   Clear
9:30 AM 93.2 °F 93.3 °F 60.8 °F 34% 29.80 in - SE 10.4 mph - N/A   Clear
10:00 AM 95.0 °F 95.2 °F 60.8 °F 32% 29.80 in - SE 9.2 mph - N/A   Clear
10:30 AM 96.8 °F 95.8 °F 57.2 °F 27% 29.77 in - SE 9.2 mph - N/A   Clear
11:00 AM 99 °F - 55 °F 14% 29.79 in - SE 9.2 mph - -  
11:00 AM 98.6 °F 97.2 °F 55.4 °F 24% 29.77 in - SE 9.2 mph - N/A   Clear
11:30 AM 100.4 °F - 51.8 °F 20% 29.77 in - East 10.4 mph - N/A   Clear
12:00 PM 101 °F - 51 °F 11% 29.76 in 12 mi East 10.4 mph - -   Partly Cloudy
12:00 PM 102.2 °F - 51.8 °F 18% 29.74 in - East 10.4 mph - N/A   Clear
12:30 PM 102.2 °F - 50.0 °F 17% 29.74 in - East 10.4 mph - N/A   Clear
1:00 PM 102.2 °F - 50.0 °F 17% 29.74 in - East 10.4 mph - N/A   Clear
1:30 PM 104.0 °F - 50.0 °F 16% 29.71 in - East 9.2 mph - N/A   Clear
2:00 PM 104 °F - 52 °F 11% 29.72 in - ENE 8.1 mph - -  
2:00 PM 104.0 °F - 51.8 °F 17% 29.71 in - ENE 8.1 mph - N/A   Clear
2:30 PM 104.0 °F - 51.8 °F 17% 29.68 in 6.2 mi NNE 9.2 mph - N/A   Partly Cloudy
3:00 PM 105 °F - 50 °F 9% 29.70 in 12 mi NNE 9.2 mph - -   Partly Cloudy
3:00 PM 104.0 °F - 50.0 °F 16% 29.68 in 6.2 mi NNE 9.2 mph - N/A   Partly Cloudy
3:30 PM 105.8 °F - 51.8 °F 17% 29.68 in 6.2 mi NNE 6.9 mph - N/A   Unknown
4:05 PM 100.4 °F 106.3 °F 68.0 °F 35% 29.65 in 6.2 mi West 17.3 mph 29.9 mph N/A   Unknown
4:30 PM 104.0 °F 104.6 °F 59.0 °F 23% 29.65 in 6.2 mi WSW 13.8 mph - N/A   Unknown
5:00 PM 101 °F - 70 °F 27% 29.67 in - WSW 17.3 mph - -  
5:00 PM 102.2 °F 110.0 °F 69.8 °F 35% 29.65 in 6.2 mi WSW 17.3 mph - N/A   Unknown
5:30 PM 98.6 °F 104.1 °F 68.0 °F 37% 29.65 in 6.2 mi WSW 19.6 mph - N/A   Unknown
6:00 PM 96 °F - 71 °F 35% 29.67 in - WSW 19.6 mph - -  
6:00 PM 96.8 °F 105.1 °F 71.6 °F 44% 29.65 in 6.2 mi WSW 19.6 mph - N/A   Unknown
6:30 PM 95.0 °F 98.5 °F 66.2 °F 39% 29.68 in 6.2 mi SW 18.4 mph - N/A   Unknown
7:00 PM 95.0 °F 97.0 °F 64.4 °F 36% 29.74 in 6.2 mi SSE 19.6 mph 34.5 mph N/A   Scattered Clouds
7:30 PM 91.4 °F 95.4 °F 68.0 °F 46% 29.74 in 6.2 mi South 16.1 mph - N/A   Unknown
8:00 PM 89 °F - 62 °F 31% 29.75 in - SSE 4.6 mph - -  
8:00 PM 89.6 °F 90.1 °F 62.6 °F 40% 29.74 in 6.2 mi SSE 4.6 mph - N/A   Unknown
8:30 PM 89.6 °F 90.1 °F 62.6 °F 40% 29.74 in 6.2 mi SSW 10.4 mph - N/A   Scattered Clouds
9:00 PM 89 °F - 59 °F 26% 29.76 in - SSW 12.7 mph - -  
9:00 PM 89.6 °F 88.9 °F 59.0 °F 36% 29.74 in 6.2 mi South 12.7 mph - N/A   Unknown
9:30 PM 89.6 °F 88.1 °F 57.2 °F 33% 29.74 in 6.2 mi SSW 10.4 mph - N/A   Unknown
10:00 PM 89.6 °F 88.9 °F 59.0 °F 36% 29.74 in 6.2 mi SW 9.2 mph - N/A   Unknown
10:30 PM 87.8 °F 86.5 °F 57.2 °F 35% 29.74 in 6.2 mi SSW 8.1 mph - N/A   Unknown
11:00 PM 88 °F - 57 °F 24% 29.81 in - SE 15.0 mph - -  
11:00 PM 87.8 °F 86.5 °F 57.2 °F 35% 29.80 in 6.2 mi SE 15.0 mph - N/A   Unknown
11:30 PM 87.8 °F 90.4 °F 66.2 °F 49% 29.80 in 6.2 mi ESE 10.4 mph - N/A   Unknown